Time,TemperatureF,DewpointF,PressureIn,WindDirection,WindDirectionDegrees,WindSpeedMPH,WindSpeedGustMPH,Humidity,HourlyPrecipIn,Conditions,Clouds,dailyrainin,SoftwareType,DateUTC
2013-05-31 00:02:00,63.0,61.0,29.82,SSE,151,3.0,7.0,92,0.06,,,0.52,,2013-05-31 05:02:00,
2013-05-31 00:12:00,63.0,61.0,29.82,SSE,151,3.0,7.0,92,0.06,,,0.52,,2013-05-31 05:12:00,
2013-05-31 00:22:00,63.0,61.0,29.81,SSE,164,2.0,6.0,93,0.06,,,0.52,,2013-05-31 05:22:00,
2013-05-31 00:32:00,63.0,61.0,29.81,South,171,4.0,8.0,92,0.06,,,0.52,,2013-05-31 05:32:00,
2013-05-31 00:42:00,63.0,61.0,29.81,South,171,4.0,8.0,92,0.06,,,0.52,,2013-05-31 05:42:00,
2013-05-31 00:52:00,63.0,61.0,29.81,SSE,147,2.0,7.0,92,0.06,,,0.54,,2013-05-31 05:52:00,
2013-05-31 01:02:00,63.0,61.0,29.81,SSW,194,1.0,5.0,93,0.02,,,0.54,,2013-05-31 06:02:00,
2013-05-31 01:12:00,63.0,61.0,29.81,SSW,194,1.0,5.0,93,0.02,,,0.54,,2013-05-31 06:12:00,
2013-05-31 01:21:00,64.0,62.0,29.82,West,265,1.0,5.0,93,0.11,,,0.63,,2013-05-31 06:21:00,
2013-05-31 01:32:00,64.0,62.0,29.81,West,263,0.0,3.0,93,0.19,,,0.71,,2013-05-31 06:32:00,
2013-05-31 01:41:00,64.0,62.0,29.81,West,263,0.0,3.0,93,0.19,,,0.71,,2013-05-31 06:41:00,
2013-05-31 01:51:00,63.0,61.0,29.80,NE,42,0.0,3.0,93,0.18,,,0.72,,2013-05-31 06:51:00,
2013-05-31 02:02:00,64.0,62.0,29.80,SE,132,3.0,5.0,93,0.18,,,0.72,,2013-05-31 07:02:00,
2013-05-31 02:11:00,64.0,62.0,29.80,SE,132,3.0,5.0,93,0.18,,,0.72,,2013-05-31 07:11:00,
2013-05-31 02:21:00,64.0,62.0,29.79,South,173,1.0,5.0,93,0.08,,,0.72,,2013-05-31 07:21:00,
2013-05-31 02:32:00,64.0,62.0,29.79,South,178,4.0,7.0,94,0.01,,,0.72,,2013-05-31 07:32:00,
2013-05-31 02:41:00,64.0,62.0,29.79,South,178,4.0,7.0,94,0.01,,,0.72,,2013-05-31 07:41:00,
2013-05-31 02:52:00,65.0,63.0,29.79,SSW,193,5.0,9.0,93,0.00,,,0.72,,2013-05-31 07:52:00,
2013-05-31 03:02:00,65.0,63.0,29.79,SSW,201,7.0,12.0,92,0.00,,,0.72,,2013-05-31 08:02:00,
2013-05-31 03:11:00,65.0,63.0,29.79,SSW,201,7.0,12.0,92,0.00,,,0.72,,2013-05-31 08:11:00,
2013-05-31 03:22:00,65.0,62.0,29.79,SSE,167,7.0,14.0,91,0.00,,,0.72,,2013-05-31 08:22:00,
2013-05-31 03:32:00,65.0,62.0,29.78,South,188,7.0,15.0,91,0.00,,,0.72,,2013-05-31 08:32:00,
2013-05-31 03:42:00,65.0,62.0,29.78,South,188,7.0,15.0,91,0.00,,,0.72,,2013-05-31 08:42:00,
2013-05-31 03:51:00,65.0,62.0,29.78,South,169,7.0,12.0,91,0.00,,,0.72,,2013-05-31 08:51:00,
2013-05-31 04:01:00,65.0,62.0,29.78,SSW,193,6.0,12.0,91,0.00,,,0.72,,2013-05-31 09:01:00,
2013-05-31 04:11:00,65.0,62.0,29.78,SSW,193,6.0,12.0,91,0.00,,,0.72,,2013-05-31 09:11:00,
2013-05-31 04:21:00,64.0,61.0,29.78,SW,221,5.0,11.0,91,0.00,,,0.72,,2013-05-31 09:21:00,
2013-05-31 04:32:00,64.0,61.0,29.79,SSW,203,2.0,7.0,91,0.00,,,0.72,,2013-05-31 09:32:00,
2013-05-31 04:43:00,64.0,61.0,29.79,SSW,203,2.0,7.0,91,0.00,,,0.72,,2013-05-31 09:43:00,
2013-05-31 04:53:00,64.0,61.0,29.79,South,182,6.0,9.0,90,0.00,,,0.72,,2013-05-31 09:53:00,
2013-05-31 05:02:00,64.0,61.0,29.79,SSW,205,6.0,13.0,89,0.00,,,0.72,,2013-05-31 10:02:00,
2013-05-31 05:12:00,64.0,61.0,29.79,SSW,205,6.0,13.0,89,0.00,,,0.72,,2013-05-31 10:12:00,
2013-05-31 05:22:00,64.0,60.0,29.79,SSW,197,6.0,11.0,88,0.00,,,0.72,,2013-05-31 10:22:00,
2013-05-31 05:33:00,63.0,59.0,29.79,South,190,5.0,9.0,88,0.00,,,0.72,,2013-05-31 10:33:00,
2013-05-31 05:42:00,63.0,59.0,29.79,South,190,5.0,9.0,88,0.00,,,0.72,,2013-05-31 10:42:00,
2013-05-31 05:52:00,63.0,60.0,29.79,SSW,207,3.0,8.0,89,0.00,,,0.72,,2013-05-31 10:52:00,
2013-05-31 06:02:00,63.0,60.0,29.80,SSW,196,4.0,7.0,89,0.00,,,0.72,,2013-05-31 11:02:00,
2013-05-31 06:11:00,63.0,60.0,29.80,SSW,196,4.0,7.0,89,0.00,,,0.72,,2013-05-31 11:11:00,
2013-05-31 06:22:00,63.0,60.0,29.80,SSW,202,5.0,9.0,90,0.00,,,0.72,,2013-05-31 11:22:00,
2013-05-31 06:32:00,63.0,60.0,29.80,SSW,211,5.0,10.0,90,0.00,,,0.72,,2013-05-31 11:32:00,
2013-05-31 06:42:00,63.0,60.0,29.80,SSW,211,5.0,10.0,90,0.00,,,0.72,,2013-05-31 11:42:00,
2013-05-31 06:52:00,63.0,60.0,29.81,South,190,5.0,14.0,90,0.00,,,0.72,,2013-05-31 11:52:00,
2013-05-31 07:01:00,63.0,60.0,29.82,SSW,205,4.0,9.0,89,0.00,,,0.72,,2013-05-31 12:01:00,
2013-05-31 07:11:00,63.0,60.0,29.82,SSW,205,4.0,9.0,89,0.00,,,0.72,,2013-05-31 12:11:00,
2013-05-31 07:21:00,64.0,61.0,29.82,SSW,207,6.0,13.0,89,0.00,,,0.72,,2013-05-31 12:21:00,
2013-05-31 07:31:00,64.0,60.0,29.82,South,191,7.0,11.0,88,0.00,,,0.72,,2013-05-31 12:31:00,
2013-05-31 07:41:00,64.0,60.0,29.82,South,191,7.0,11.0,88,0.00,,,0.72,,2013-05-31 12:41:00,
2013-05-31 07:52:00,64.0,60.0,29.83,SSW,202,6.0,13.0,88,0.00,,,0.72,,2013-05-31 12:52:00,
2013-05-31 08:01:00,65.0,61.0,29.83,SSW,196,7.0,11.0,87,0.00,,,0.72,,2013-05-31 13:01:00,
2013-05-31 08:11:00,65.0,61.0,29.83,SSW,196,7.0,11.0,87,0.00,,,0.72,,2013-05-31 13:11:00,
2013-05-31 08:21:00,66.0,61.0,29.83,South,188,9.0,13.0,84,0.00,,,0.72,,2013-05-31 13:21:00,
2013-05-31 08:32:00,68.0,63.0,29.82,SSW,198,8.0,17.0,83,0.00,,,0.72,,2013-05-31 13:32:00,
2013-05-31 08:42:00,68.0,63.0,29.82,SSW,198,8.0,17.0,83,0.00,,,0.72,,2013-05-31 13:42:00,
2013-05-31 08:52:00,69.0,64.0,29.83,South,181,8.0,15.0,83,0.00,,,0.72,,2013-05-31 13:52:00,
2013-05-31 09:02:00,68.0,63.0,29.83,SSW,200,6.0,13.0,85,0.00,,,0.72,,2013-05-31 14:02:00,
2013-05-31 09:11:00,68.0,63.0,29.83,SSW,200,6.0,13.0,85,0.00,,,0.72,,2013-05-31 14:11:00,
2013-05-31 09:21:00,68.0,63.0,29.83,SW,236,6.0,14.0,84,0.00,,,0.72,,2013-05-31 14:21:00,
2013-05-31 09:32:00,69.0,64.0,29.82,South,189,7.0,14.0,85,0.00,,,0.72,,2013-05-31 14:32:00,
2013-05-31 09:41:00,69.0,64.0,29.82,South,189,7.0,14.0,85,0.00,,,0.72,,2013-05-31 14:41:00,
2013-05-31 09:52:00,70.0,65.0,29.82,South,189,8.0,13.0,83,0.00,,,0.72,,2013-05-31 14:52:00,
2013-05-31 10:01:00,70.0,64.0,29.83,SSE,160,8.0,14.0,82,0.00,,,0.72,,2013-05-31 15:01:00,
2013-05-31 10:11:00,70.0,64.0,29.83,SSE,160,8.0,14.0,82,0.00,,,0.72,,2013-05-31 15:11:00,
2013-05-31 10:21:00,71.0,66.0,29.83,South,178,6.0,14.0,84,0.00,,,0.72,,2013-05-31 15:21:00,
2013-05-31 10:33:00,72.0,66.0,29.82,SSE,164,7.0,14.0,81,0.00,,,0.72,,2013-05-31 15:33:00,
2013-05-31 10:43:00,72.0,66.0,29.82,SSE,164,7.0,14.0,81,0.00,,,0.72,,2013-05-31 15:43:00,
2013-05-31 10:53:00,73.0,66.0,29.82,SW,219,6.0,15.0,80,0.00,,,0.72,,2013-05-31 15:53:00,
2013-05-31 11:03:00,74.0,66.0,29.83,South,189,6.0,14.0,77,0.00,,,0.72,,2013-05-31 16:03:00,
2013-05-31 11:12:00,74.0,66.0,29.83,South,189,6.0,14.0,77,0.00,,,0.72,,2013-05-31 16:12:00,
2013-05-31 11:22:00,73.0,65.0,29.83,SSW,198,5.0,12.0,76,0.00,,,0.72,,2013-05-31 16:22:00,
2013-05-31 11:33:00,72.0,64.0,29.85,South,190,7.0,16.0,77,0.00,,,0.72,,2013-05-31 16:33:00,
2013-05-31 11:42:00,72.0,64.0,29.85,South,190,7.0,16.0,77,0.00,,,0.72,,2013-05-31 16:42:00,
2013-05-31 11:52:00,72.0,65.0,29.85,WSW,251,7.0,12.0,79,0.00,,,0.72,,2013-05-31 16:52:00,
2013-05-31 12:02:00,72.0,65.0,29.85,SSW,204,7.0,14.0,79,0.00,,,0.72,,2013-05-31 17:02:00,
2013-05-31 12:12:00,72.0,65.0,29.85,SSW,204,7.0,14.0,79,0.00,,,0.72,,2013-05-31 17:12:00,
2013-05-31 12:22:00,72.0,65.0,29.84,SW,222,6.0,16.0,79,0.00,,,0.72,,2013-05-31 17:22:00,
2013-05-31 12:32:00,72.0,64.0,29.83,SW,223,5.0,12.0,77,0.00,,,0.72,,2013-05-31 17:32:00,
2013-05-31 12:42:00,72.0,64.0,29.83,SW,223,5.0,12.0,77,0.00,,,0.72,,2013-05-31 17:42:00,
2013-05-31 12:52:00,71.0,64.0,29.85,West,278,7.0,15.0,79,0.00,,,0.72,,2013-05-31 17:52:00,
2013-05-31 13:01:00,71.0,64.0,29.83,WSW,238,5.0,18.0,79,0.00,,,0.72,,2013-05-31 18:01:00,
2013-05-31 13:11:00,71.0,64.0,29.83,WSW,238,5.0,18.0,79,0.00,,,0.72,,2013-05-31 18:11:00,
2013-05-31 13:22:00,71.0,65.0,29.79,South,189,5.0,8.0,81,0.00,,,0.72,,2013-05-31 18:22:00,
2013-05-31 13:32:00,70.0,64.0,29.80,South,186,7.0,10.0,81,0.00,,,0.72,,2013-05-31 18:32:00,
2013-05-31 13:42:00,70.0,64.0,29.80,South,186,7.0,10.0,81,0.00,,,0.72,,2013-05-31 18:42:00,
2013-05-31 13:52:00,70.0,64.0,29.82,WSW,258,2.0,11.0,80,0.00,,,0.72,,2013-05-31 18:52:00,
2013-05-31 14:02:00,70.0,65.0,29.81,WSW,246,3.0,7.0,84,0.00,,,0.72,,2013-05-31 19:02:00,
2013-05-31 14:11:00,70.0,65.0,29.81,WSW,246,3.0,7.0,84,0.00,,,0.72,,2013-05-31 19:11:00,
2013-05-31 14:22:00,69.0,64.0,29.80,South,173,1.0,5.0,85,0.00,,,0.72,,2013-05-31 19:22:00,
2013-05-31 14:32:00,70.0,65.0,29.80,South,177,2.0,6.0,85,0.01,,,0.73,,2013-05-31 19:32:00,
2013-05-31 14:42:00,70.0,65.0,29.80,South,177,2.0,6.0,85,0.01,,,0.73,,2013-05-31 19:42:00,
2013-05-31 14:52:00,70.0,65.0,29.79,South,182,5.0,8.0,83,0.01,,,0.73,,2013-05-31 19:52:00,
2013-05-31 15:01:00,70.0,65.0,29.78,SSE,160,3.0,8.0,84,0.01,,,0.73,,2013-05-31 20:01:00,
2013-05-31 15:11:00,70.0,65.0,29.78,SSE,160,3.0,8.0,84,0.01,,,0.73,,2013-05-31 20:11:00,
2013-05-31 15:22:00,70.0,66.0,29.78,SSW,199,3.0,8.0,86,0.02,,,0.74,,2013-05-31 20:22:00,
2013-05-31 15:31:00,70.0,66.0,29.78,South,179,4.0,7.0,87,0.02,,,0.75,,2013-05-31 20:31:00,
2013-05-31 15:41:00,70.0,66.0,29.78,South,179,4.0,7.0,87,0.02,,,0.75,,2013-05-31 20:41:00,
2013-05-31 15:52:00,70.0,67.0,29.78,South,177,4.0,9.0,89,0.02,,,0.75,,2013-05-31 20:52:00,
2013-05-31 16:01:00,71.0,67.0,29.76,South,172,4.0,11.0,87,0.02,,,0.75,,2013-05-31 21:01:00,
2013-05-31 16:11:00,71.0,67.0,29.76,South,172,4.0,11.0,87,0.02,,,0.75,,2013-05-31 21:11:00,
2013-05-31 16:22:00,71.0,66.0,29.77,SSE,155,5.0,9.0,84,0.01,,,0.75,,2013-05-31 21:22:00,
2013-05-31 16:32:00,71.0,66.0,29.76,South,171,2.0,7.0,85,0.00,,,0.75,,2013-05-31 21:32:00,
2013-05-31 16:42:00,71.0,66.0,29.76,South,171,2.0,7.0,85,0.00,,,0.75,,2013-05-31 21:42:00,
2013-05-31 16:54:00,71.0,67.0,29.75,SE,128,0.0,4.0,87,0.07,,,0.82,,2013-05-31 21:54:00,
2013-05-31 17:02:00,67.0,62.0,29.79,SW,226,10.0,26.0,83,0.52,,,1.27,,2013-05-31 22:02:00,
2013-05-31 17:12:00,67.0,62.0,29.79,SW,226,10.0,26.0,83,0.52,,,1.27,,2013-05-31 22:12:00,
2013-05-31 17:22:00,63.0,60.0,29.73,WSW,252,1.0,21.0,91,1.43,,,2.18,,2013-05-31 22:22:00,
2013-05-31 17:33:00,64.0,61.0,29.72,South,181,2.0,10.0,91,1.46,,,2.19,,2013-05-31 22:33:00,
2013-05-31 17:42:00,67.0,64.0,29.73,South,186,3.0,13.0,91,1.68,,,2.47,,2013-05-31 22:42:00,
2013-05-31 17:53:00,67.0,64.0,29.73,South,186,3.0,13.0,91,1.68,,,2.47,,2013-05-31 22:53:00,
2013-05-31 18:02:00,69.0,66.0,29.72,South,184,5.0,13.0,89,1.23,,,2.50,,2013-05-31 23:02:00,
2013-05-31 18:12:00,69.0,66.0,29.72,South,184,5.0,13.0,89,1.23,,,2.50,,2013-05-31 23:12:00,
2013-05-31 18:21:00,70.0,68.0,29.72,SSE,163,6.0,10.0,92,0.35,,,2.50,,2013-05-31 23:21:00,
2013-05-31 18:32:00,70.0,67.0,29.72,SSW,206,3.0,7.0,90,0.31,,,2.50,,2013-05-31 23:32:00,
2013-05-31 18:42:00,70.0,67.0,29.72,SSW,206,3.0,7.0,90,0.31,,,2.50,,2013-05-31 23:42:00,
2013-05-31 18:52:00,70.0,67.0,29.72,South,171,3.0,6.0,91,0.03,,,2.50,,2013-05-31 23:52:00,
2013-05-31 19:01:00,71.0,69.0,29.71,SSW,196,3.0,8.0,93,0.00,,,2.50,,2013-06-01 00:01:00,
2013-05-31 19:11:00,71.0,69.0,29.71,SSW,196,3.0,8.0,93,0.00,,,2.50,,2013-06-01 00:11:00,
2013-05-31 19:22:00,72.0,69.0,29.71,South,174,3.0,12.0,91,0.00,,,2.50,,2013-06-01 00:22:00,
2013-05-31 19:32:00,73.0,70.0,29.71,South,184,5.0,12.0,89,0.00,,,2.50,,2013-06-01 00:32:00,
2013-05-31 19:42:00,73.0,70.0,29.71,South,184,5.0,12.0,89,0.00,,,2.50,,2013-06-01 00:42:00,
2013-05-31 19:52:00,73.0,69.0,29.70,SSW,202,6.0,15.0,88,0.00,,,2.50,,2013-06-01 00:52:00,
2013-05-31 20:01:00,73.0,69.0,29.72,SSW,193,6.0,14.0,87,0.00,,,2.50,,2013-06-01 01:01:00,
2013-05-31 20:11:00,73.0,69.0,29.72,SSW,193,6.0,14.0,87,0.00,,,2.50,,2013-06-01 01:11:00,
2013-05-31 20:22:00,73.0,69.0,29.73,SSW,203,5.0,16.0,87,0.00,,,2.50,,2013-06-01 01:22:00,
2013-05-31 20:32:00,73.0,69.0,29.73,SW,223,5.0,14.0,88,0.00,,,2.50,,2013-06-01 01:32:00,
2013-05-31 20:42:00,73.0,69.0,29.74,SSE,165,6.0,12.0,87,0.00,,,2.50,,2013-06-01 01:42:00,
2013-05-31 20:52:00,73.0,69.0,29.74,SSE,165,6.0,12.0,87,0.00,,,2.50,,2013-06-01 01:52:00,
2013-05-31 21:01:00,73.0,69.0,29.74,South,180,8.0,14.0,87,0.01,,,2.50,,2013-06-01 02:01:00,
2013-05-31 21:11:00,73.0,69.0,29.74,South,180,8.0,14.0,87,0.01,,,2.50,,2013-06-01 02:11:00,
2013-05-31 21:21:00,72.0,69.0,29.76,South,188,5.0,12.0,89,0.02,,,2.45,,2013-06-01 02:21:00,
2013-05-31 21:32:00,72.0,69.0,29.75,SW,214,3.0,10.0,89,0.03,,,2.46,,2013-06-01 02:32:00,
2013-05-31 21:42:00,71.0,68.0,29.75,SSW,192,5.0,9.0,90,0.05,,,2.48,,2013-06-01 02:42:00,
2013-05-31 21:52:00,71.0,68.0,29.75,SSW,192,5.0,9.0,90,0.05,,,2.48,,2013-06-01 02:52:00,
2013-05-31 22:01:00,71.0,68.0,29.74,South,182,5.0,9.0,91,0.06,,,2.50,,2013-06-01 03:01:00,
2013-05-31 22:11:00,71.0,68.0,29.74,South,182,5.0,9.0,91,0.06,,,2.50,,2013-06-01 03:11:00,
2013-05-31 22:21:00,71.0,68.0,29.74,SSE,166,5.0,13.0,90,0.06,,,2.16,,2013-06-01 03:21:00,
2013-05-31 22:33:00,71.0,68.0,29.72,SW,230,6.0,15.0,89,0.06,,,2.16,,2013-06-01 03:33:00,
2013-05-31 22:43:00,70.0,65.0,29.69,SSW,193,5.0,12.0,85,0.06,,,2.18,,2013-06-01 03:43:00,
2013-05-31 22:53:00,70.0,65.0,29.69,SSW,193,5.0,12.0,85,0.06,,,2.18,,2013-06-01 03:53:00,
2013-05-31 23:02:00,68.0,64.0,29.63,ESE,107,11.0,15.0,86,0.06,,,2.20,,2013-06-01 04:02:00,
2013-05-31 23:12:00,68.0,64.0,29.63,ESE,107,11.0,15.0,86,0.06,,,2.20,,2013-06-01 04:12:00,
2013-05-31 23:23:00,67.0,63.0,29.66,SSE,153,10.0,19.0,86,0.04,,,2.20,,2013-06-01 04:23:00,
2013-05-31 23:33:00,65.0,62.0,29.67,SSE,167,6.0,15.0,90,0.03,,,2.20,,2013-06-01 04:33:00,
2013-05-31 23:42:00,65.0,62.0,29.70,WNW,286,2.0,6.0,90,0.02,,,2.20,,2013-06-01 04:42:00,
2013-05-31 23:53:00,65.0,62.0,29.70,WNW,286,2.0,6.0,90,0.02,,,2.20,,2013-06-01 04:53:00,